| time (UTC) | temp C | wind direction | speed KPH | gust KPH | rain 1hr cm | rain 24hr cm | rain mn cm | humidity % | barometer mb |
| 20260505173048 | 7 | 11 | 17.7 | 30.6 | 0.00 | 0.00 | 0.00 | 45 | 932.8 |
| 20260505171532 | 7 | 347 | 14.5 | 27.4 | 0.00 | 0.00 | 0.00 | 45 | 933.0 |
| 20260505170027 | 6 | 40 | 16.1 | 33.8 | 0.00 | 0.00 | 0.00 | 47 | 933.1 |
| 20260505164510 | 7 | 351 | 17.7 | 29.0 | 0.00 | 0.00 | 0.00 | 46 | 933.0 |
| 20260505163009 | 6 | 325 | 14.5 | 25.7 | 0.00 | 0.00 | 0.00 | 48 | 933.1 |
| 20260505161553 | 6 | 327 | 14.5 | 30.6 | 0.00 | 0.00 | 0.00 | 48 | 933.1 |
| 20260505153028 | 5 | 24 | 9.7 | 25.7 | 0.00 | 0.00 | 0.00 | 50 | 933.1 |
| 20260505151507 | 4 | 360 | 12.9 | 24.1 | 0.00 | 0.00 | 0.00 | 52 | 933.0 |
| 20260505124521 | 1 | 349 | 12.9 | 17.7 | 0.00 | 0.00 | 0.00 | 63 | 932.2 |
| 20260505123029 | 0 | 326 | 14.5 | 19.3 | 0.00 | 0.00 | 0.00 | 65 | 932.2 |
| 20260505121501 | 0 | 340 | 14.5 | 17.7 | 0.00 | 0.00 | 0.00 | 68 | 932.0 |
| 20260505120059 | 0 | 342 | 9.7 | 12.9 | 0.00 | 0.00 | 0.00 | 66 | 931.9 |
| 20260505114559 | 0 | 5 | 6.4 | 14.5 | 0.00 | 0.00 | 0.00 | 65 | 931.8 |
| 20260505113039 | 0 | 351 | 8.0 | 12.9 | 0.00 | 0.00 | 0.00 | 65 | 931.7 |
| 20260505111533 | 0 | 333 | 9.7 | 12.9 | 0.00 | 0.00 | 0.00 | 64 | 931.6 |
| 20260505101601 | 2 | 334 | 6.4 | 9.7 | 0.00 | 0.00 | 0.00 | 59 | 931.6 |
| 20260505100052 | 2 | 329 | 6.4 | 9.7 | 0.00 | 0.00 | 0.00 | 60 | 931.6 |
| 20260505094531 | 2 | 355 | 4.8 | 9.7 | 0.00 | 0.00 | 0.00 | 60 | 931.5 |
| 20260505093006 | 2 | 348 | 6.4 | 8.0 | 0.00 | 0.00 | 0.00 | 59 | 931.3 |
| 20260505091505 | 2 | 348 | 6.4 | 9.7 | 0.00 | 0.00 | 0.00 | 59 | 931.4 |
| 20260505090048 | 2 | 355 | 8.0 | 9.7 | 0.00 | 0.00 | 0.00 | 59 | 931.3 |
| 20260505084547 | 2 | 348 | 8.0 | 11.3 | 0.00 | 0.00 | 0.00 | 59 | 931.4 |
| 20260505083026 | 2 | 346 | 8.0 | 9.7 | 0.00 | 0.00 | 0.00 | 58 | 931.2 |
| 20260505081527 | 2 | 348 | 6.4 | 11.3 | 0.00 | 0.00 | 0.00 | 58 | 931.2 |
| 20260505080008 | 2 | 344 | 8.0 | 11.3 | 0.00 | 0.00 | 0.00 | 57 | 931.0 |
| 20260505074509 | 2 | 337 | 3.2 | 9.7 | 0.00 | 0.00 | 0.00 | 57 | 931.1 |
| 20260505073050 | 3 | 341 | 8.0 | 12.9 | 0.00 | 0.00 | 0.00 | 56 | 930.9 |
| 20260505071554 | 2 | 349 | 6.4 | 9.7 | 0.00 | 0.00 | 0.00 | 56 | 931.0 |
| 20260505070031 | 3 | 11 | 8.0 | 11.3 | 0.00 | 0.00 | 0.00 | 56 | 931.1 |
| 20260505064529 | 3 | 26 | 6.4 | 8.0 | 0.00 | 0.00 | 0.00 | 55 | 931.1 |
| 20260505063011 | 3 | 26 | 4.8 | 6.4 | 0.00 | 0.00 | 0.00 | 54 | 930.9 |
| 20260505061520 | 3 | 28 | 4.8 | 8.0 | 0.00 | 0.00 | 0.00 | 55 | 930.7 |
| 20260505060053 | 2 | 247 | 3.2 | 6.4 | 0.00 | 0.00 | 0.00 | 56 | 930.7 |
| 20260505054552 | 2 | 154 | 1.6 | 3.2 | 0.00 | 0.00 | 0.00 | 57 | 930.8 |
| 20260505053040 | 1 | 156 | 3.2 | 8.0 | 0.00 | 0.00 | 0.00 | 58 | 930.4 |
| 20260505051539 | 1 | 138 | 1.6 | 6.4 | 0.00 | 0.00 | 0.00 | 57 | 930.4 |
| 20260505041544 | 4 | 5 | 4.8 | 9.7 | 0.00 | 0.00 | 0.00 | 50 | 930.2 |
| 20260505040023 | 5 | 31 | 4.8 | 12.9 | 0.00 | 0.00 | 0.00 | 48 | 929.9 |
| 20260505034519 | 5 | 43 | 11.3 | 22.5 | 0.00 | 0.00 | 0.00 | 47 | 929.8 |
| 20260505033104 | 6 | 44 | 12.9 | 20.9 | 0.00 | 0.00 | 0.00 | 46 | 929.8 |
| 20260505031557 | 6 | 34 | 14.5 | 24.1 | 0.00 | 0.00 | 0.00 | 45 | 929.6 |
| 20260505030036 | 7 | 29 | 19.3 | 25.7 | 0.00 | 0.00 | 0.00 | 43 | 929.4 |
| 20260505024533 | 7 | 33 | 20.9 | 32.2 | 0.00 | 0.00 | 0.00 | 41 | 929.0 |
| 20260505023019 | 8 | 15 | 22.5 | 32.2 | 0.00 | 0.00 | 0.00 | 38 | 928.8 |
| 20260505021510 | 8 | 38 | 27.4 | 38.6 | 0.00 | 0.00 | 0.00 | 36 | 928.5 |
| 20260505020053 | 10 | 14 | 24.1 | 37.0 | 0.00 | 0.00 | 0.00 | 34 | 928.3 |
| 20260505014555 | 10 | 27 | 22.5 | 40.2 | 0.00 | 0.00 | 0.00 | 31 | 928.1 |
| 20260505013032 | 11 | 40 | 27.4 | 41.8 | 0.00 | 0.00 | 0.00 | 28 | 927.9 |
| 20260505011534 | 12 | 5 | 27.4 | 45.1 | 0.00 | 0.00 | 0.00 | 27 | 927.7 |
| 20260505010016 | 12 | 360 | 32.2 | 41.8 | 0.00 | 0.00 | 0.00 | 27 | 927.6 |
| 20260505004508 | 12 | 351 | 30.6 | 43.5 | 0.00 | 0.00 | 0.00 | 25 | 927.6 |
| 20260505003054 | 12 | 13 | 30.6 | 41.8 | 0.00 | 0.00 | 0.00 | 23 | 927.5 |
| 20260505001549 | 12 | 329 | 38.6 | 48.3 | 0.00 | 0.00 | 0.00 | 22 | 927.3 |
| 20260505000042 | 13 | 9 | 32.2 | 51.5 | 0.00 | 0.00 | 0.00 | 23 | 927.3 |
| 20260504234528 | 13 | 355 | 32.2 | 48.3 | 0.00 | 0.00 | 0.00 | 24 | 927.2 |
| 20260504233010 | 13 | 347 | 32.2 | 56.3 | 0.00 | 0.00 | 0.00 | 23 | 927.1 |
| 20260504231509 | 12 | 342 | 37.0 | 56.3 | 0.00 | 0.00 | 0.00 | 23 | 927.0 |
| 20260504230056 | 13 | 350 | 27.4 | 54.7 | 0.00 | 0.00 | 0.00 | 24 | 926.9 |
| 20260504224554 | 12 | 341 | 35.4 | 49.9 | 0.00 | 0.00 | 0.00 | 26 | 926.9 |
| 20260504223101 | 13 | 324 | 35.4 | 51.5 | 0.00 | 0.00 | 0.00 | 27 | 926.8 |
| 20260504221603 | 13 | 336 | 32.2 | 48.3 | 0.00 | 0.00 | 0.00 | 28 | 926.9 |
| 20260504220052 | 12 | 331 | 30.6 | 51.5 | 0.00 | 0.00 | 0.00 | 29 | 926.9 |
| 20260504214601 | 13 | 329 | 30.6 | 49.9 | 0.00 | 0.00 | 0.00 | 30 | 926.8 |
| 20260504213103 | 12 | 355 | 33.8 | 49.9 | 0.00 | 0.00 | 0.00 | 31 | 926.8 |
| 20260504211551 | 12 | 339 | 24.1 | 54.7 | 0.00 | 0.00 | 0.00 | 30 | 926.8 |
| 20260504210022 | 13 | 332 | 35.4 | 49.9 | 0.00 | 0.00 | 0.00 | 29 | 926.8 |
| 20260504204519 | 12 | 327 | 29.0 | 54.7 | 0.00 | 0.00 | 0.00 | 33 | 926.8 |
| 20260504203059 | 12 | 322 | 41.8 | 54.7 | 0.00 | 0.00 | 0.00 | 32 | 926.8 |
| 20260504201600 | 12 | 327 | 29.0 | 54.7 | 0.00 | 0.00 | 0.00 | 32 | 926.6 |
| 20260504200041 | 11 | 325 | 37.0 | 51.5 | 0.00 | 0.00 | 0.00 | 31 | 926.7 |
| 20260504194544 | 12 | 328 | 24.1 | 57.9 | 0.00 | 0.00 | 0.00 | 32 | 926.5 |
| 20260504193022 | 12 | 332 | 29.0 | 48.3 | 0.00 | 0.00 | 0.00 | 34 | 926.6 |
| 20260504191532 | 13 | 324 | 29.0 | 51.5 | 0.00 | 0.00 | 0.00 | 32 | 926.6 |
| 20260504190005 | 13 | 334 | 29.0 | 49.9 | 0.00 | 0.00 | 0.00 | 34 | 926.5 |
| 20260504184503 | 13 | 338 | 29.0 | 53.1 | 0.00 | 0.00 | 0.00 | 34 | 926.3 |
| 20260504183045 | 13 | 328 | 35.4 | 51.5 | 0.00 | 0.00 | 0.00 | 34 | 926.3 |
| 20260504181546 | 13 | 5 | 35.4 | 48.3 | 0.00 | 0.00 | 0.00 | 35 | 926.1 |
| 20260504180025 | 12 | 320 | 33.8 | 41.8 | 0.00 | 0.00 | 0.00 | 36 | 926.4 |
| 20260504174524 | 12 | 326 | 32.2 | 45.1 | 0.00 | 0.00 | 0.00 | 36 | 926.5 |